Weather in Krasnyy Yar

Russia / Novosibirsk Oblast     54°27′06″N   82°09′16″E
temp.,
°C
wind,
m/s
gust,
m/s
humid.,
%
clouds,
%
prec.,
mm/h
press.,
hPa
HPBL,
m
21 january, fri
fri2101:00−20sw229946 0.0 103513
04:00−21ssw119942 0.0 103511
07:00−22s119947 0.0 103510
10:00−22ese1110048 0.0 103511
13:00−17ne119641 0.0 103459
16:00−16ne229847 0.0 103238
19:00−20ne2210035 0.0 103310
22:00−21nne1110086 0.0 103310
22 january, sat
sat2201:00−22n1110078 0.0 10329
04:00−22n2210067 0.0 103214
07:00−22n11100100 0.0 103313
10:00−19nne12100100 0.0 103341
13:00−15n1295100 0.0 103392
16:00−14nne1195100 0.0 103333
19:00−17nne1197100 0.0 10349
22:00−19wnw0010031 0.0 10359
23 january, sun
sun2301:00−21w1110028 0.0 10359
04:00−21wnw00100100 0.0 10359
07:00−20wsw1199100 0.0 10359
10:00−21s0010056 0.0 10359
13:00−16wnw009529 0.0 103558
16:00−16nne119747 0.0 103426
19:00−18ese1198100 0.0 10359
22:00−15nw0095100 0.0 103543
24 january, mon
mon2401:00−13nne1195100 0.1 103583
04:00−13ne1295100 0.6 1034102
07:00−12ne2395100 1.2 1035142
10:00−13nne2496100 0.2 1035111
13:00−11nne3593100 0.3 1035239
16:00−11nne359382 0.2 1035277
19:00−19n339957 0.2 103735
22:00−21n2210099 0.0 103718
25 january, tue
tue2501:00−23n11100100 0.0 103711
04:00−24n11100100 0.0 10369
07:00−23wnw1110088 0.0 103612
10:00−25wnw1110068 0.0 103610
13:00−18wnw119746 0.0 103578
16:00−16wsw1195100 0.0 103441
19:00−16sw2295100 0.0 103427
22:00−16sw3595100 0.0 1033107